| time (UTC) | temp C | wind direction | speed KPH | gust KPH | rain 1hr cm | rain 24hr cm | rain mn cm | humidity % | barometer mb |
| 20260507141508 | 6 | 265 | 9.7 | 11.3 | 0.00 | 0.08 | 0.08 | 69 | 1064.8 |
| 20260507140508 | 6 | 285 | 9.7 | 16.1 | 0.00 | 0.08 | 0.08 | 69 | 1064.8 |
| 20260507135508 | 6 | 254 | 14.5 | 14.5 | 0.00 | 0.08 | 0.08 | 69 | 1064.8 |
| 20260507134508 | 5 | 321 | 4.8 | 4.8 | 0.00 | 0.08 | 0.08 | 71 | 1064.9 |
| 20260507133505 | 5 | 329 | 8.0 | 12.9 | 0.00 | 0.08 | 0.08 | 70 | 1064.7 |
| 20260507132500 | 5 | 272 | 3.2 | 3.2 | 0.00 | 0.08 | 0.08 | 72 | 1064.6 |
| 20260507131459 | 5 | 7 | 8.0 | 9.7 | 0.00 | 0.08 | 0.08 | 72 | 1064.7 |
| 20260507130458 | 5 | 319 | 8.0 | 11.3 | 0.00 | 0.08 | 0.08 | 76 | 1064.8 |
| 20260507125455 | 4 | 348 | 8.0 | 9.7 | 0.00 | 0.08 | 0.08 | 77 | 1064.5 |
| 20260507124454 | 3 | 267 | 4.8 | 4.8 | 0.00 | 0.08 | 0.08 | 80 | 1064.8 |
| 20260507123455 | 3 | 283 | 1.6 | 1.6 | 0.00 | 0.08 | 0.08 | 83 | 1064.5 |
| 20260507122452 | 3 | 285 | 0.0 | 1.6 | 0.00 | 0.08 | 0.08 | 82 | 1064.5 |
| 20260507121450 | 3 | 259 | 4.8 | 4.8 | 0.00 | 0.08 | 0.08 | 82 | 1064.8 |
| 20260507120449 | 3 | 284 | 1.6 | 1.6 | 0.00 | 0.08 | 0.08 | 83 | 1064.7 |
| 20260507115448 | 3 | 266 | 0.0 | 0.0 | 0.00 | 0.08 | 0.08 | 84 | 1064.6 |
| 20260507114445 | 2 | 315 | 3.2 | 3.2 | 0.00 | 0.08 | 0.08 | 85 | 1064.9 |
| 20260507113445 | 2 | 269 | 0.0 | 0.0 | 0.00 | 0.08 | 0.08 | 86 | 1065.1 |
| 20260507112440 | 2 | 296 | 1.6 | 1.6 | 0.00 | 0.08 | 0.08 | 89 | 1065.0 |
| 20260507111440 | 1 | 294 | 1.6 | 1.6 | 0.00 | 0.08 | 0.08 | 94 | 1064.9 |
| 20260507110438 | 1 | 278 | 0.0 | 0.0 | 0.00 | 0.08 | 0.08 | 98 | 1065.2 |
| 20260507105438 | 0 | 285 | 0.0 | 0.0 | 0.00 | 0.08 | 0.08 | 99 | 1065.0 |
| 20260507104437 | 0 | 272 | 0.0 | 0.0 | 0.00 | 0.08 | 0.08 | 99 | 1064.8 |
| 20260507103435 | 0 | 266 | 0.0 | 0.0 | 0.00 | 0.08 | 0.08 | 99 | 1064.8 |
| 20260507102434 | 0 | 279 | 1.6 | 1.6 | 0.00 | 0.08 | 0.08 | 99 | 1064.8 |
| 20260507101431 | 0 | 276 | 0.0 | 0.0 | 0.00 | 0.08 | 0.08 | 99 | 1064.7 |
| 20260507100431 | 0 | 276 | 0.0 | 1.6 | 0.00 | 0.08 | 0.08 | 99 | 1064.7 |
| 20260507095427 | 0 | 275 | 0.0 | 0.0 | 0.00 | 0.08 | 0.08 | 99 | 1064.8 |
| 20260507094426 | 0 | 269 | 0.0 | 0.0 | 0.00 | 0.08 | 0.08 | 99 | 1064.7 |
| 20260507093421 | 0 | 261 | 0.0 | 1.6 | 0.00 | 0.08 | 0.08 | 99 | 1064.8 |
| 20260507092420 | 0 | 266 | 0.0 | 0.0 | 0.00 | 0.08 | 0.08 | 99 | 1064.6 |
| 20260507091420 | 0 | 264 | 0.0 | 1.6 | 0.00 | 0.08 | 0.08 | 99 | 1064.8 |
| 20260507090418 | 0 | 269 | 0.0 | 0.0 | 0.00 | 0.08 | 0.08 | 99 | 1064.3 |
| 20260507085418 | 0 | 269 | 1.6 | 1.6 | 0.00 | 0.08 | 0.08 | 99 | 1064.7 |
| 20260507084417 | 0 | 244 | 4.8 | 4.8 | 0.00 | 0.08 | 0.08 | 99 | 1064.7 |
| 20260507083417 | 1 | 261 | 1.6 | 1.6 | 0.00 | 0.08 | 0.08 | 99 | 1064.6 |
| 20260507082415 | 1 | 277 | 0.0 | 1.6 | 0.00 | 0.08 | 0.08 | 99 | 1064.8 |
| 20260507081414 | 1 | 274 | 0.0 | 0.0 | 0.00 | 0.08 | 0.08 | 99 | 1064.7 |
| 20260507080413 | 1 | 266 | 0.0 | 0.0 | 0.00 | 0.08 | 0.08 | 98 | 1064.3 |
| 20260507075410 | 1 | 249 | 3.2 | 3.2 | 0.00 | 0.08 | 0.08 | 98 | 1064.2 |
| 20260507074410 | 2 | 269 | 0.0 | 1.6 | 0.00 | 0.08 | 0.08 | 98 | 1064.4 |
| 20260507073410 | 2 | 241 | 3.2 | 3.2 | 0.00 | 0.08 | 0.08 | 99 | 1064.3 |
| 20260507072404 | 2 | 267 | 1.6 | 1.6 | 0.00 | 0.08 | 0.08 | 99 | 1064.2 |
| 20260507071404 | 2 | 263 | 4.8 | 4.8 | 0.00 | 0.08 | 0.08 | 99 | 1063.9 |
| 20260507070404 | 3 | 268 | 1.6 | 1.6 | 0.00 | 0.08 | 0.08 | 99 | 1064.1 |
| 20260507065403 | 3 | 254 | 3.2 | 3.2 | 0.00 | 0.08 | 0.08 | 99 | 1064.2 |
| 20260507064359 | 3 | 269 | 1.6 | 1.6 | 0.00 | 0.08 | 0.08 | 99 | 1064.3 |
| 20260507063359 | 3 | 273 | 1.6 | 1.6 | 0.00 | 0.08 | 0.08 | 99 | 1064.2 |
| 20260507062358 | 3 | 269 | 1.6 | 1.6 | 0.00 | 0.08 | 0.08 | 99 | 1064.3 |
| 20260507061354 | 3 | 270 | 0.0 | 0.0 | 0.00 | 0.08 | 0.08 | 99 | 1064.2 |
| 20260507060355 | 3 | 273 | 0.0 | 0.0 | 0.00 | 0.08 | 0.08 | 99 | 1064.2 |
| 20260507055352 | 3 | 295 | 3.2 | 3.2 | 0.00 | 0.08 | 0.08 | 99 | 1064.3 |
| 20260507054351 | 3 | 320 | 4.8 | 4.8 | 0.18 | 0.08 | 0.08 | 99 | 1064.3 |
| 20260507053347 | 4 | 312 | 1.6 | 1.6 | 0.00 | 0.05 | 0.05 | 99 | 1064.2 |
| 20260507052341 | 4 | 303 | 1.6 | 3.2 | 0.13 | 0.05 | 0.05 | 99 | 1064.1 |
| 20260507051337 | 4 | 265 | 1.6 | 3.2 | 0.00 | 0.03 | 0.03 | 99 | 1064.2 |
| 20260507050335 | 4 | 285 | 0.0 | 1.6 | 0.00 | 0.03 | 0.03 | 99 | 1063.9 |
| 20260507045335 | 5 | 267 | 1.6 | 3.2 | 0.18 | 0.03 | 0.03 | 99 | 1063.9 |
| 20260507044335 | 5 | 265 | 3.2 | 3.2 | 0.00 | 0.00 | 0.00 | 99 | 1063.9 |
| 20260507043333 | 5 | 273 | 1.6 | 1.6 | 0.00 | 0.00 | 0.00 | 99 | 1063.9 |
| 20260507042331 | 5 | 288 | 1.6 | 1.6 | 0.00 | 0.00 | 0.00 | 99 | 1063.7 |
| 20260507041331 | 5 | 264 | 0.0 | 1.6 | 0.00 | 0.00 | 0.00 | 99 | 1063.7 |
| 20260507040330 | 5 | 263 | 1.6 | 1.6 | 0.00 | 0.00 | 0.00 | 99 | 1063.9 |
| 20260507035327 | 5 | 267 | 1.6 | 1.6 | 0.00 | 2.06 | 2.06 | 99 | 1063.6 |
| 20260507034322 | 5 | 258 | 1.6 | 1.6 | 0.00 | 2.06 | 2.06 | 99 | 1064.2 |
| 20260507033318 | 5 | 266 | 0.0 | 0.0 | 0.00 | 2.06 | 2.06 | 99 | 1063.8 |
| 20260507032316 | 5 | 263 | 1.6 | 1.6 | 0.00 | 2.06 | 2.06 | 99 | 1064.1 |
| 20260507031316 | 5 | 267 | 1.6 | 1.6 | 0.00 | 2.06 | 2.06 | 99 | 1063.8 |
| 20260507030316 | 5 | 274 | 1.6 | 1.6 | 0.00 | 2.06 | 2.06 | 99 | 1063.9 |
| 20260507025315 | 5 | 269 | 0.0 | 0.0 | 0.00 | 2.06 | 2.06 | 99 | 1064.2 |
| 20260507024315 | 5 | 270 | 0.0 | 0.0 | 0.00 | 2.06 | 2.06 | 99 | 1064.2 |
| 20260507023312 | 5 | 270 | 0.0 | 1.6 | 0.00 | 2.06 | 2.06 | 99 | 1064.2 |
| 20260507022312 | 4 | 277 | 0.0 | 0.0 | 0.00 | 2.06 | 2.06 | 99 | 1064.2 |
| 20260507021310 | 4 | 274 | 0.0 | 1.6 | 0.00 | 2.06 | 2.06 | 99 | 1064.6 |
| 20260507020310 | 4 | 289 | 0.0 | 0.0 | 0.00 | 2.06 | 2.06 | 99 | 1064.3 |
| 20260507015310 | 4 | 275 | 0.0 | 0.0 | 0.00 | 2.06 | 2.06 | 99 | 1064.6 |
| 20260507014309 | 4 | 272 | 0.0 | 0.0 | 0.00 | 2.06 | 2.06 | 99 | 1064.5 |
| 20260507013309 | 5 | 268 | 0.0 | 0.0 | 0.00 | 2.06 | 2.06 | 99 | 1064.1 |
| 20260507012308 | 5 | 265 | 0.0 | 0.0 | 0.00 | 2.06 | 2.06 | 99 | 1064.5 |
| 20260507011308 | 5 | 270 | 0.0 | 0.0 | 0.00 | 2.06 | 2.06 | 99 | 1064.2 |
| 20260507010303 | 5 | 270 | 0.0 | 0.0 | 0.00 | 2.06 | 2.06 | 99 | 1064.2 |
| 20260507005305 | 5 | 269 | 0.0 | 0.0 | 0.00 | 2.06 | 2.06 | 99 | 1064.2 |
| 20260507004303 | 5 | 278 | 0.0 | 0.0 | 0.00 | 2.06 | 2.06 | 99 | 1063.7 |
| 20260507003301 | 5 | 284 | 0.0 | 0.0 | 0.00 | 2.06 | 2.06 | 99 | 1063.6 |
| 20260507002259 | 5 | 299 | 0.0 | 1.6 | 0.00 | 2.06 | 2.06 | 99 | 1063.4 |
| 20260507001254 | 5 | 339 | 3.2 | 3.2 | 0.00 | 2.06 | 2.06 | 99 | 1063.2 |
| 20260507000251 | 5 | 305 | 0.0 | 1.6 | 0.00 | 2.06 | 2.06 | 99 | 1063.3 |
| 20260506235249 | 5 | 305 | 1.6 | 1.6 | 0.00 | 2.06 | 2.06 | 99 | 1063.6 |
| 20260506234244 | 5 | 295 | 0.0 | 0.0 | 0.00 | 2.06 | 2.06 | 99 | 1063.5 |
| 20260506233244 | 5 | 350 | 3.2 | 4.8 | 0.00 | 2.06 | 2.06 | 99 | 1063.8 |
| 20260506232241 | 5 | 306 | 1.6 | 1.6 | 0.00 | 2.06 | 2.06 | 99 | 1063.6 |
| 20260506231237 | 5 | 323 | 4.8 | 4.8 | 0.00 | 2.06 | 2.06 | 99 | 1063.8 |
| 20260506230236 | 5 | 309 | 3.2 | 3.2 | 0.00 | 2.06 | 2.06 | 99 | 1063.5 |
| 20260506225236 | 5 | 357 | 4.8 | 8.0 | 0.00 | 2.06 | 2.06 | 99 | 1063.8 |
| 20260506224236 | 6 | 318 | 1.6 | 1.6 | 0.00 | 2.06 | 2.06 | 99 | 1063.5 |
| 20260506223233 | 6 | 307 | 1.6 | 1.6 | 0.00 | 2.06 | 2.06 | 99 | 1063.2 |
| 20260506222232 | 6 | 334 | 4.8 | 8.0 | 0.00 | 2.06 | 2.06 | 99 | 1062.9 |
| 20260506221228 | 6 | 311 | 4.8 | 4.8 | 0.00 | 2.06 | 2.06 | 99 | 1062.9 |
| 20260506220225 | 6 | 326 | 4.8 | 4.8 | 0.00 | 2.06 | 2.06 | 99 | 1062.9 |
| 20260506215224 | 6 | 304 | 3.2 | 3.2 | 0.00 | 2.06 | 2.06 | 99 | 1062.7 |
| 20260506214224 | 6 | 304 | 1.6 | 1.6 | 0.00 | 2.06 | 2.06 | 99 | 1062.7 |
| 20260506213219 | 6 | 300 | 1.6 | 1.6 | 0.00 | 2.06 | 2.06 | 99 | 1062.5 |
| 20260506212217 | 6 | 309 | 1.6 | 1.6 | 0.00 | 2.06 | 2.06 | 99 | 1062.0 |
| 20260506211215 | 6 | 301 | 3.2 | 4.8 | 0.00 | 2.06 | 2.06 | 99 | 1062.1 |
| 20260506210215 | 6 | 321 | 3.2 | 3.2 | 0.00 | 2.06 | 2.06 | 99 | 1062.3 |
| 20260506205213 | 6 | 316 | 1.6 | 1.6 | 0.18 | 2.06 | 2.06 | 99 | 1062.2 |
| 20260506204208 | 6 | 312 | 1.6 | 3.2 | 0.00 | 2.03 | 2.03 | 99 | 1062.2 |
| 20260506203203 | 6 | 339 | 3.2 | 3.2 | 0.00 | 2.03 | 2.03 | 99 | 1062.1 |
| 20260506202202 | 6 | 326 | 1.6 | 3.2 | 0.00 | 2.03 | 2.03 | 99 | 1061.9 |
| 20260506201202 | 7 | 332 | 4.8 | 8.0 | 0.00 | 2.03 | 2.03 | 99 | 1061.6 |
| 20260506200202 | 6 | 338 | 4.8 | 4.8 | 0.00 | 2.03 | 2.03 | 99 | 1061.9 |
| 20260506195200 | 7 | 317 | 3.2 | 3.2 | 0.13 | 2.03 | 2.03 | 99 | 1061.9 |
| 20260506194200 | 7 | 358 | 8.0 | 9.7 | 0.00 | 2.01 | 2.01 | 99 | 1061.9 |
| 20260506193200 | 7 | 308 | 1.6 | 1.6 | 0.18 | 2.01 | 2.01 | 99 | 1061.6 |
| 20260506192200 | 7 | 318 | 3.2 | 3.2 | 0.00 | 1.98 | 1.98 | 99 | 1061.8 |
| 20260506191158 | 7 | 317 | 4.8 | 4.8 | 0.00 | 1.98 | 1.98 | 99 | 1061.8 |
| 20260506190158 | 7 | 296 | 0.0 | 0.0 | 0.00 | 1.98 | 1.98 | 99 | 1061.5 |
| 20260506185157 | 7 | 338 | 3.2 | 3.2 | 0.13 | 1.98 | 1.98 | 99 | 1061.3 |
| 20260506184152 | 7 | 309 | 0.0 | 1.6 | 0.00 | 1.96 | 1.96 | 99 | 1061.1 |
| 20260506183151 | 7 | 306 | 1.6 | 3.2 | 0.00 | 1.96 | 1.96 | 99 | 1061.5 |
| 20260506182151 | 6 | 252 | 0.0 | 0.0 | 0.00 | 1.96 | 1.96 | 99 | 1061.4 |
| 20260506181146 | 6 | 78 | 4.8 | 8.0 | 0.00 | 1.96 | 1.96 | 99 | 1060.9 |
| 20260506180145 | 6 | 307 | 0.0 | 0.0 | 0.00 | 1.96 | 1.96 | 99 | 1061.1 |
| 20260506175144 | 6 | 286 | 0.0 | 0.0 | 0.00 | 1.96 | 1.96 | 99 | 1061.2 |
| 20260506174139 | 6 | 300 | 0.0 | 1.6 | 0.00 | 1.96 | 1.96 | 99 | 1061.1 |
| 20260506173139 | 6 | 55 | 1.6 | 1.6 | 0.00 | 1.96 | 1.96 | 99 | 1061.4 |
| 20260506172138 | 6 | 297 | 0.0 | 1.6 | 0.00 | 1.96 | 1.96 | 99 | 1061.3 |
| 20260506171134 | 6 | 2 | 1.6 | 1.6 | 0.18 | 1.96 | 1.96 | 99 | 1061.1 |
| 20260506170128 | 6 | 90 | 4.8 | 4.8 | 0.00 | 1.93 | 1.93 | 99 | 1061.1 |
| 20260506165127 | 6 | 303 | 0.0 | 1.6 | 0.13 | 1.93 | 1.93 | 99 | 1061.2 |
| 20260506164127 | 6 | 310 | 0.0 | 1.6 | 0.18 | 1.91 | 1.91 | 99 | 1061.6 |
| 20260506163123 | 5 | 315 | 1.6 | 3.2 | 0.13 | 1.88 | 1.88 | 99 | 1061.5 |
| 20260506162123 | 5 | 314 | 1.6 | 1.6 | 0.18 | 1.85 | 1.85 | 99 | 1061.8 |
| 20260506161121 | 5 | 78 | 0.0 | 0.0 | 0.13 | 1.83 | 1.83 | 99 | 1061.9 |
| 20260506160120 | 5 | 78 | 6.4 | 8.0 | 0.00 | 1.80 | 1.80 | 99 | 1061.5 |
| 20260506155116 | 5 | 59 | 1.6 | 3.2 | 0.13 | 1.78 | 1.78 | 99 | 1061.6 |
| 20260506152924 | 5 | 288 | 0.0 | 0.0 | 0.18 | 1.75 | 1.75 | 99 | 1061.6 |
| 20260506151920 | 5 | 357 | 1.6 | 1.6 | 0.18 | 1.73 | 1.73 | 99 | 1061.2 |
| 20260506150920 | 5 | 311 | 0.0 | 1.6 | 0.13 | 1.70 | 1.70 | 99 | 1061.5 |
| 20260506145919 | 5 | 292 | 0.0 | 0.0 | 0.18 | 1.68 | 1.68 | 99 | 1061.4 |
| 20260506144918 | 5 | 319 | 1.6 | 1.6 | 0.18 | 1.63 | 1.63 | 99 | 1061.3 |
| 20260506143913 | 5 | 86 | 3.2 | 3.2 | 0.30 | 1.60 | 1.60 | 99 | 1061.3 |
| 20260506142908 | 5 | 320 | 0.0 | 1.6 | 0.30 | 1.55 | 1.55 | 99 | 1061.6 |
| 20260506141904 | 5 | 295 | 0.0 | 0.0 | 0.30 | 1.50 | 1.50 | 99 | 1061.9 |